User: anonymous   Login
Location: Chakepay
(13.3931°S, 72.1925°W)
Time: 12:14:16
(UTC+00:00)
Language:

Cosmos 773 Rocket - Orbit

View from above orbital plane
View from above orbital plane
View from above satellite
View from above satellite

Ground track
Ground track

The orbit data is extracted from the following two-line orbital elements,

1  8344U 75094B   20021.17074225 -.00000088  00000-0 -19701-4 0  9997
2  8344  74.0546 178.7061 0022328 204.9924 155.0152 14.39148710322053
Epoch (UTC): 21 January 2020 04:05:52
Eccentricity: 0.0022328
inclination: 74.0546°
perigee height: 745 km
apogee height: 777 km
right ascension of ascending node: 178.7061°
argument of perigee: 204.9924°
revolutions per day: 14.39148710
mean anomaly at epoch: 155.0152°
orbit number at epoch: 32205

The dashed part of the orbit path shows where the satellite is in the earth's shadow,  

DLR